#timestamp,LO_Frequency,Hit,StdDev 
1562385615.4,286047002.2,N
1562385635.2,286047001.9,N
1562385655.0,286047003.7,N
1562385655.9,286047003.7,N
1562385675.8,286047004.2,N
1562385695.6,286047002.1,N
1562385715.5,286047000.2,N
1562385735.3,286047000.9,N
1562385755.1,286047002.7,N
1562385775.9,286046999.7,N
1562385795.7,286047000.1,N
1562385815.6,286047000.3,N
1562385835.4,286047000.4,N
1562385855.2,286047001.9,N
1562385875.1,286047001.9,N
1562385876.0,286047001.9,N
1562385895.8,286047001.7,N
1562385915.0,286047005.9,Y
1562385915.9,286047005.9,P
1562385935.8,286047002.1,N
1562385955.6,286047002.3,N
1562385975.4,286047004.4,N
1562385995.3,286047004.1,N
1562386015.1,286047003.2,N
1562386035.9,286047003.6,N
1562386055.7,286047002.1,N
1562386075.5,286047001.7,N
1562386095.4,286047004.2,Y
1562386115.2,286047000.9,P
1562386135.1,286046998.2,N
1562386136.0,286046998.2,N
1562386155.8,286046998.1,N
1562386175.6,286046998.8,N
1562386195.5,286046998.3,N
1562386215.3,286046998.3,N
1562386235.1,286046997.0,N
1562386255.9,286046996.7,N
1562386275.7,286046999.2,N
1562386295.6,286046998.4,N
1562386315.4,286046996.8,N
1562386335.2,286046997.2,N
1562386355.1,286046997.4,N
1562386356.0,286046997.4,N
1562386375.8,286046996.9,N
1562386395.7,286046995.1,Y
1562386415.5,286046997.2,P
1562386435.3,286046994.9,P
1562386455.2,286046996.8,N
1562386475.0,286046995.0,Y
1562386475.9,286046995.0,P
1562386495.8,286046998.1,N
1562386515.6,286046998.5,N
1562386535.4,286047000.8,N
1562386555.3,286046998.7,N
1562386575.1,286047001.2,N
1562386595.8,286046998.3,N
1562386615.7,286047001.2,N
1562386635.5,286046998.2,N
1562386655.4,286046999.0,N
1562386675.2,286046998.4,N
1562386695.0,286047001.2,N
1562386695.9,286047001.2,N
1562386715.8,286046998.6,N
1562386735.6,286047001.2,N
1562386755.5,286047000.7,N
1562386775.3,286047002.8,N
1562386795.1,286047000.2,N
1562386815.9,286047000.1,N
1562386835.7,286047000.1,N
1562386855.6,286046999.7,N
1562386875.4,286047002.7,N
1562386895.2,286046999.8,N
1562386915.1,286047002.5,N
1562386946.0,286047000.3,E
1562386955.0,286047002.6,N
1562386955.9,286047002.6,P
1562386975.8,286047000.9,P
1562386995.6,286046998.4,N
1562387015.4,286046999.3,N
1562387035.3,286046998.8,N
1562387055.1,286046998.7,N
1562387075.9,286046998.4,N
1562387095.7,286046999.3,N
1562387115.5,286046997.0,N
1562387135.4,286046996.6,N
1562387155.2,286046998.3,N
1562387175.0,286046998.5,N
1562387175.9,286046998.5,N
1562387195.8,286046999.3,N
1562387215.6,286046998.4,N
1562387235.5,286046996.9,N
1562387255.3,286046997.0,N
1562387275.1,286046998.5,N
1562387295.9,286046999.5,N
1562387315.7,286047001.2,N
1562387335.6,286046998.4,N
1562387355.4,286046999.0,N
1562387375.2,286047000.1,N
1562387395.1,286047002.8,N
1562387396.0,286047002.8,N
1562387415.8,286046999.8,N
1562387435.6,286046999.0,N
1562387455.5,286046998.9,N
1562387475.3,286047000.9,N
1562387495.2,286047001.0,N
1562387515.9,286047001.1,N
1562387535.7,286046996.5,N
1562387555.6,286046996.6,N
1562387575.4,286046999.2,N
1562387595.3,286046998.5,N
1562387615.1,286046998.7,N
1562387616.0,286046998.7,N
1562387635.8,286046998.5,N
1562387655.7,286046998.3,N
1562387675.5,286046998.6,N
1562387695.3,286047000.0,N
1562387715.2,286046998.4,N
1562387735.0,286046998.7,N
1562387735.9,286046998.7,N
1562387755.8,286046997.0,N
1562387775.6,286046999.2,N
1562387795.4,286046996.8,N
1562387815.3,286046998.5,N
1562387835.1,286046998.5,N
1562387855.9,286047002.8,N
1562387875.7,286047000.3,N
1562387895.5,286046998.6,N
1562387915.4,286047001.1,N
1562387935.2,286046998.4,N
1562387955.1,286046999.1,N
1562387956.0,286046999.1,N
1562387975.8,286046996.9,N
1562387995.7,286046999.2,N
1562388015.5,286046998.3,N
1562388035.3,286047000.7,N
1562388055.2,286046998.7,N
1562388075.0,286046998.5,N
1562388075.9,286046998.5,N
1562388095.7,286046998.7,N
1562388115.6,286046998.2,N
1562388135.4,286046998.7,N
1562388155.3,286046998.4,N
1562388175.1,286046998.7,N
1562388176.0,286046998.7,N
1562388195.8,286046999.0,N
1562388215.7,286046998.8,N
1562388235.5,286046999.2,N
1562388255.4,286046996.5,Y
1562388275.2,286047000.8,P
1562388295.0,286047000.0,N
1562388295.9,286047000.0,N
1562388315.4,286047001.0,N
1562388335.3,286047000.6,N
1562388355.1,286046998.5,N
1562388356.0,286046998.5,N
1562388375.8,286047000.5,N
1562388395.7,286046999.9,N
1562388415.5,286047001.2,N
1562388435.4,286047001.0,N
1562388455.2,286047002.7,N
1562388475.0,286047000.4,N
1562388475.9,286047000.4,N
1562388495.8,286047002.2,N
1562388515.6,286047001.4,N
1562388535.4,286047002.1,N
1562388555.3,286047003.3,N
1562388575.1,286046999.8,N
1562388595.9,286047000.6,N
1562388615.7,286047000.5,N
1562388635.5,286047000.5,N
1562388655.7,286047001.2,N
1562388675.5,286046998.4,N
1562388695.3,286046999.8,N
1562388715.2,286047001.8,N
1562388735.0,286047002.2,N
1562388735.9,286047002.2,N
1562388755.8,286047002.5,N
1562388775.6,286047002.5,N
1562388795.4,286047000.0,N
1562388815.3,286046999.8,N
1562388835.1,286047002.7,N
1562388855.9,286047004.4,Y
1562388875.7,286046999.9,P
1562388895.5,286047000.5,N
1562388915.4,286047001.2,N
1562388935.2,286046999.7,N
1562388955.0,286047000.4,N
1562388955.9,286047000.4,N
1562388975.8,286047002.6,Y
1562388995.6,286046999.7,P
1562389015.5,286047001.5,P
1562389035.3,286047001.9,N
1562389055.1,286047001.4,N
1562389075.9,286047001.7,N
1562389095.7,286047001.5,N
1562389115.6,286047002.1,N
1562389135.4,286047001.9,N
1562389155.2,286047001.7,N
1562389175.1,286047005.4,Y
1562389176.0,286047005.4,P
1562389195.8,286047003.9,N
